Location: Ford County Road and Bridge Department
(37.7686°N, 99.9762°W)
Time: 14:47:33
(UTC+00:00)

Cosmos 2219 - Pass Details

Date: 18 January 2020
Orbit: 833 x 861 km, 71.1° (Epoch: 23 February)

Event Time Altitude Azimuth Distance (km) Brightness Sun altitude
Exits shadow 10:53:48 40° 110° (ESE) 1,229 4.3 -35.1°
Drops below altitude 10° 10:57:48 10° 140° (SE) 2,482 6.0 -34.3°
Sets 11:00:20 0° 145° (SE) 3,418 6.8 -33.8°
